TimeEDT,TemperatureF,Dew PointF,Humidity,Sea Level PressureIn,VisibilityMPH,Wind Direction,Wind SpeedMPH,Gust SpeedMPH,PrecipitationIn,Events,Conditions,WindDirDegrees,DateUTC
12:15 AM,68.0,62.6,83,30.17,10.0,Calm,Calm,-,N/A,,Scattered Clouds,0,2013-07-04 04:15:00
12:35 AM,68.0,62.6,83,30.17,10.0,SSE,3.5,-,N/A,,Scattered Clouds,150,2013-07-04 04:35:00
12:55 AM,68.0,62.6,83,30.17,10.0,SE,3.5,-,N/A,,Scattered Clouds,140,2013-07-04 04:55:00
1:15 AM,68.0,62.6,83,30.17,10.0,Calm,Calm,-,N/A,,Clear,0,2013-07-04 05:15:00
1:35 AM,68.0,62.6,83,30.17,10.0,Calm,Calm,-,N/A,,Clear,0,2013-07-04 05:35:00
1:55 AM,68.0,62.6,83,30.17,10.0,Calm,Calm,-,N/A,,Mostly Cloudy,0,2013-07-04 05:55:00
2:15 AM,66.2,62.6,88,30.17,10.0,Calm,Calm,-,N/A,,Overcast,0,2013-07-04 06:15:00
2:35 AM,66.2,62.6,88,30.17,10.0,Calm,Calm,-,N/A,,Overcast,0,2013-07-04 06:35:00
2:55 AM,66.2,62.6,88,30.16,10.0,Calm,Calm,-,N/A,,Mostly Cloudy,0,2013-07-04 06:55:00
3:15 AM,66.2,62.6,88,30.16,10.0,Calm,Calm,-,N/A,,Mostly Cloudy,0,2013-07-04 07:15:00
3:35 AM,66.2,62.6,88,30.16,10.0,ESE,3.5,-,N/A,,Overcast,120,2013-07-04 07:35:00
3:55 AM,66.2,62.6,88,30.16,10.0,Calm,Calm,-,N/A,,Overcast,0,2013-07-04 07:55:00
4:15 AM,66.2,62.6,88,30.16,10.0,Calm,Calm,-,N/A,,Overcast,0,2013-07-04 08:15:00
4:35 AM,64.4,62.6,94,30.15,10.0,Calm,Calm,-,N/A,,Mostly Cloudy,0,2013-07-04 08:35:00
4:55 AM,66.2,64.4,94,30.16,10.0,Calm,Calm,-,N/A,,Overcast,0,2013-07-04 08:55:00
5:15 AM,64.4,64.4,100,30.17,10.0,Calm,Calm,-,0.02,Rain,Light Rain,0,2013-07-04 09:15:00
5:35 AM,64.4,64.4,100,30.18,7.0,Calm,Calm,-,0.07,Rain,Light Rain,0,2013-07-04 09:35:00
5:55 AM,64.4,64.4,100,30.17,10.0,Calm,Calm,-,0.13,Rain,Light Rain,0,2013-07-04 09:55:00
6:15 AM,64.4,64.4,100,30.17,10.0,Calm,Calm,-,0.05,Rain,Light Rain,0,2013-07-04 10:15:00
6:35 AM,64.4,64.4,100,30.16,10.0,Calm,Calm,-,0.11,Rain,Light Rain,0,2013-07-04 10:35:00
6:55 AM,64.4,64.4,100,30.17,10.0,ESE,3.5,-,0.13,Rain,Rain,120,2013-07-04 10:55:00
7:15 AM,64.4,64.4,100,30.17,10.0,ESE,3.5,-,0.01,Rain,Light Rain,120,2013-07-04 11:15:00
7:35 AM,64.4,64.4,100,30.17,10.0,Calm,Calm,-,0.01,,Overcast,0,2013-07-04 11:35:00
7:55 AM,64.4,64.4,100,30.18,10.0,SE,3.5,-,0.01,,Overcast,130,2013-07-04 11:55:00
8:15 AM,66.2,66.2,100,30.18,7.0,Calm,Calm,-,0.05,Rain,Light Rain,0,2013-07-04 12:15:00
8:35 AM,66.2,66.2,100,30.18,10.0,Calm,Calm,-,0.11,Rain,Light Rain,0,2013-07-04 12:35:00
8:55 AM,66.2,66.2,100,30.18,10.0,Calm,Calm,-,0.12,Rain,Light Rain,0,2013-07-04 12:55:00
9:15 AM,68.0,66.2,94,30.18,10.0,SE,4.6,-,0.01,Rain,Light Rain,140,2013-07-04 13:15:00
9:35 AM,66.2,66.2,100,30.18,10.0,SE,3.5,-,0.06,Rain,Light Rain,130,2013-07-04 13:35:00
9:55 AM,66.2,66.2,100,30.18,10.0,Calm,Calm,-,0.11,Rain,Light Rain,0,2013-07-04 13:55:00
10:15 AM,66.2,66.2,100,30.18,10.0,ESE,3.5,-,0.04,Rain,Light Rain,120,2013-07-04 14:15:00
10:35 AM,66.2,66.2,100,30.18,10.0,ESE,4.6,-,0.10,Rain,Light Rain,120,2013-07-04 14:35:00
10:55 AM,68.0,66.2,94,30.17,10.0,Calm,Calm,-,0.11,,Drizzle,0,2013-07-04 14:55:00
11:15 AM,68.0,66.2,94,30.17,10.0,Calm,Calm,-,N/A,,Drizzle,0,2013-07-04 15:15:00
11:35 AM,68.0,68.0,100,30.17,10.0,East,3.5,-,0.03,Rain,Light Rain,90,2013-07-04 15:35:00
11:55 AM,68.0,68.0,100,30.18,10.0,Calm,Calm,-,0.04,Rain,Light Rain,0,2013-07-04 15:55:00
12:15 PM,68.0,68.0,100,30.17,7.0,ESE,3.5,-,0.05,Rain,Light Rain,120,2013-07-04 16:15:00
12:35 PM,69.8,68.0,94,30.17,10.0,SSE,4.6,-,0.05,Rain,Rain,150,2013-07-04 16:35:00
12:55 PM,69.8,68.0,94,30.17,10.0,Calm,Calm,-,0.08,Rain,Light Rain,0,2013-07-04 16:55:00
1:15 PM,69.8,68.0,94,30.16,10.0,Calm,Calm,-,0.01,,Overcast,0,2013-07-04 17:15:00
1:35 PM,71.6,69.8,94,30.16,10.0,Calm,Calm,-,0.01,,Mostly Cloudy,0,2013-07-04 17:35:00
1:55 PM,71.6,69.8,94,30.16,10.0,SE,3.5,-,0.01,,Drizzle,140,2013-07-04 17:55:00
2:15 PM,71.6,69.8,94,30.16,10.0,ESE,4.6,-,N/A,Rain,Light Rain,120,2013-07-04 18:15:00
2:35 PM,71.6,69.8,94,30.16,10.0,ESE,5.8,-,N/A,,Overcast,120,2013-07-04 18:35:00
2:55 PM,71.6,69.8,94,30.15,10.0,SE,3.5,-,N/A,,Overcast,130,2013-07-04 18:55:00
3:15 PM,71.6,69.8,94,30.14,10.0,SE,5.8,-,N/A,,Mostly Cloudy,130,2013-07-04 19:15:00
3:35 PM,73.4,69.8,88,30.14,10.0,East,5.8,-,N/A,,Mostly Cloudy,100,2013-07-04 19:35:00
3:55 PM,71.6,69.8,94,30.13,10.0,SE,8.1,-,N/A,Thunderstorm,Mostly Cloudy,130,2013-07-04 19:55:00
4:15 PM,71.6,69.8,94,30.12,10.0,SE,5.8,-,N/A,,Overcast,130,2013-07-04 20:15:00
4:35 PM,69.8,68.0,94,30.13,3.0,WNW,9.2,18.4,0.32,Rain,Rain,300,2013-07-04 20:35:00
4:55 PM,68.0,68.0,100,30.14,7.0,West,5.8,-,0.42,Rain,Light Rain,260,2013-07-04 20:55:00
5:15 PM,68.0,68.0,100,30.14,10.0,WNW,4.6,-,0.01,Rain,Light Rain,290,2013-07-04 21:15:00
5:35 PM,68.0,68.0,100,30.13,10.0,Calm,Calm,-,0.01,Rain,Light Rain,0,2013-07-04 21:35:00
5:55 PM,68.0,66.2,94,30.12,10.0,Calm,Calm,-,0.01,,Overcast,0,2013-07-04 21:55:00
6:15 PM,68.0,68.0,100,30.13,10.0,WSW,4.6,-,0.02,Rain,Light Rain,240,2013-07-04 22:15:00
6:35 PM,68.0,68.0,100,30.13,10.0,West,4.6,-,0.02,Rain,Light Rain,270,2013-07-04 22:35:00
6:55 PM,68.0,66.2,94,30.13,10.0,West,8.1,-,0.06,Rain,Light Rain,280,2013-07-04 22:55:00
7:15 PM,66.2,66.2,100,30.13,10.0,West,11.5,-,0.04,Rain,Light Rain,280,2013-07-04 23:15:00
7:35 PM,64.4,64.4,100,30.15,7.0,WNW,8.1,-,0.19,Rain,Light Rain,300,2013-07-04 23:35:00
7:55 PM,64.4,64.4,100,30.15,3.0,NW,10.4,-,0.53,Rain,Rain,320,2013-07-04 23:55:00
8:15 PM,64.4,64.4,100,30.18,7.0,Calm,Calm,-,0.09,Rain,Light Rain,0,2013-07-05 00:15:00
8:35 PM,64.4,64.4,100,30.17,7.0,Calm,Calm,-,0.17,Rain,Light Rain,0,2013-07-05 00:35:00
8:55 PM,64.4,64.4,100,30.15,10.0,Calm,Calm,-,0.19,Rain,Light Rain,0,2013-07-05 00:55:00
9:15 PM,64.4,64.4,100,30.15,10.0,Calm,Calm,-,N/A,Rain,Light Rain,0,2013-07-05 01:15:00
9:35 PM,64.4,64.4,100,30.15,10.0,Calm,Calm,-,N/A,,Mostly Cloudy,0,2013-07-05 01:35:00
9:55 PM,64.4,64.4,100,30.15,5.0,SSE,3.5,-,0.01,,Mostly Cloudy,160,2013-07-05 01:55:00
10:15 PM,64.4,64.4,100,30.15,10.0,Calm,Calm,-,N/A,,Overcast,0,2013-07-05 02:15:00
10:35 PM,64.4,64.4,100,30.16,10.0,Calm,Calm,-,N/A,,Overcast,0,2013-07-05 02:35:00
10:55 PM,64.4,64.4,100,30.17,10.0,SSE,3.5,-,N/A,Rain,Light Rain,150,2013-07-05 02:55:00
11:15 PM,64.4,64.4,100,30.17,10.0,ESE,3.5,-,0.03,Rain,Light Rain,110,2013-07-05 03:15:00
11:35 PM,64.4,64.4,100,30.16,10.0,ESE,3.5,-,0.07,Rain,Light Rain,120,2013-07-05 03:35:00
11:55 PM,64.4,64.4,100,30.17,10.0,SSE,3.5,-,0.09,Rain,Light Rain,160,2013-07-05 03:55:00